Шураб

Таджикистан     40°02′48″N   70°32′38″E
темп.,
°C
ветер,
м/с
пор.,
м/с
влажн.,
%
обл.,
%
осадки,
мм/ч
давл.,
гПа
погр.,
м
25 февраля, чт
чт2523:00−5з7116572 0.4 1021891
02:00−7з576478 0.1 1024703
05:00−9з576189 0.2 1028464
08:00−11зсз465482 0.0 1034325
11:00−9ссв114892 0.0 1034567
14:00−8юв125581 0.1 1033732
17:00−9юв126190 0.1 1034580
20:00−10вюв0260100 0.1 1037391
26 февраля, пт
пт2623:00−9юв1247100 0.1 1037491
02:00−10ююв2247100 0.0 1035356
05:00−11ю2249100 0.0 1034198
08:00−10юв124398 0.0 1034271
11:00−7всв233450 0.0 1030548
14:00−5всв333672 0.0 1027668
17:00−5всв224047 0.0 1027549
20:00−6в11470 0.0 1030161
27 февраля, сб
сб2723:00−7ююв114418 0.0 1030234
02:00−7ююв1142100 0.0 1029184
05:00−7ююв1243100 0.0 1029162
08:00−6юв1136100 0.0 1030232
11:00−4св2132100 0.0 1029617
14:00−3всв2231100 0.0 1028707
17:00−3всв223899 0.0 1029427
20:00−5всв12511 0.0 103479
28 февраля, вс
вс2823:00−6всв22530 0.0 1033172
02:00−6всв12520 0.0 1032133
05:00−6вюв01530 0.0 102978
08:00−5всв12510 0.0 1028207
11:00−2всв33420 0.0 1024477
14:00+1всв33360 0.0 1021594
17:00+1всв22390 0.0 1020399
20:00−2в12520 0.0 102423
1 марта, пн
пн123:00−2ю11520 0.0 102424
02:00−2ююз01496 0.0 102423
05:00−2ююв11423 0.0 102421
08:000вюв113473 0.0 102522
11:00+4всв222743 0.0 1022246
14:00+6св22300 0.0 1020333
17:00+6в11330 0.0 1020210
20:00+1юв01490 0.0 102322